Location: Albany
(35.0170°S, 117.8920°E)
Time: 09:21:59
(UTC+08:00)

S-56A Canister/Altair - Pass Details

Date: 23 January 2021
Orbit: 632 x 2501 km, 38.9° (Epoch: 25 February)

Event Time Altitude Azimuth Distance (km) Brightness Sun altitude
Rises 14:14:06 0° 297° (WNW) 5,626 12.4 60.4°
Reaches altitude 10° 14:17:29 10° 298° (WNW) 4,797 12.2 59.8°
Maximum altitude 14:31:54 84° 23° (NNE) 2,517 11.3 57.0°
Drops below altitude 10° 14:46:44 10° 109° (ESE) 4,907 11.4 54.1°
Sets 14:50:14 0° 109° (ESE) 5,755 11.6 53.5°
